STARLINK-32807, 62845

Orbit data source: Space-Track

STARLINK-32807, 62845 is a payload satellite owned by SpaceX/Seattle (US) in LEO that was launched on Mon, 27 Jan 2025 UTC via an FALCON 9 launch vehicle from the Air Force Eastern Test Range (AFETR). Payload-class satellites include a variety of spacecraft equipped with specific instruments for various scientific and technological missions. These include communications satellites like Starlink; space stations such as the ISS; scientific satellites like the Hubble; Earth observation satellites from companies like Planet Labs, Umbra, and HawkEye 360; GPS; miniature CubeSats for education and research; and military/defense satellites.

Loading next visibility...
Identifier
62845, 2025-019S
Orbit
LEO
Country
Flag of USUS
Related business
Manufacturer
SpaceX/Seattle
Mission
Operational Commercial Communications
Bus & Motor
STARLINK V2M, Unknown motor
Mass
730 kg wet, ~700 kg dry
Launch date (UTC)
2025-01-27 (1 year ago)
Launch vehicle
FALCON 9
Launch site
Air Force Eastern Test Range (AFETR)
Object type
Payload
Rocket body
Debris
Shape & HBR
Box + 2 Pan, 17.7 m
Radar Cross Section
33.884 m², Large (>1 m²)

Expand to show TLE details & history
Last TLE update: 10 hours ago

TLE from 10 hours ago
0 STARLINK-32807
1 62845U 25019S   26038.25003472 -.00007962  00000-0 -28003-3 0  9996
2 62845  43.0003 253.4517 0002427 266.3190  17.1009 15.27587355  5759
Epoch: 2026-02-07T06:00Z
TLE epoch observation values (Epoch: 2026-02-07T06:00:02.999Z)
Latitude
-41.71922°
Longitude
-45.89084°
Altitude
494.191 km
Speed
7.619 km/s
True Right ascension
12h 05m 59s
True Declination
-41° 32' 31"
Sunlit
Object was in partial shadow at epoch
Visualization orbit readout
Latitude
Unknown
Longitude
Unknown
Altitude
Unknown
Speed
Unknown
Apparent Right ascension
Unknown
Apparent Declination
Unknown
Sunlit
N/A
Visualization observer readout
Local Sidereal Time
17:54:49
Azimuth
Unknown
Elevation
Unknown
Doppler factor
Unknown
Orbital elements
Apogee altitude
486.638 km
Perigee altitude
483.307 km
Semi-major axis
6,863.109 km
Eccentricity
0.00024
Inclination
43.0003°
RAAN
253.4517°
Arg. of periapsis
266.319°
True anomaly
17.10908°
Mean anomaly
17.1009°
Eccentric anomaly
17.10499°
Mean motion
3.81735 °/min
Orbital period
94.31 mins
BSTAR
-0.00028003
Loading maneuver chart data...
Computing Atmospheric mass density...
Loading historical data...
Loading historical data...
Loading historical data...
Loading historical data...
Loading historical data...
Loading historical data...
Loading historical data...

Documentation

Showing up to 5 results
|